STARLINK-2284

Last updated on Sat Apr 24 2021 00:02:02 GMT+0000 (Coordinated Universal Time)

1 48016U 21024AR 21113.25001157 .00075750 00000-0 54011-3 0 9995 2 48016 53.0485 55.6652 0001260 74.7678 93.9934 15.73160087 1829

Satellite not in orbit

STARLINK-2284